Location: Miles
(41.4492°N, 81.6087°W)
Time: 08:56:18
(UTC+00:00)

Vanguard 1 Rocket - Visible Passes

Search period start: 19 September 2024 00:00
Search period end: 29 September 2024 00:00
Orbit: 649 x 4219 km, 34.3° (Epoch: 18 September)

Date Brightness Start Highest point End Pass type
(mag) Time Alt. Az. Time Alt. Az. Time Alt. Az.
19 Sep 10.8 05:41:27 16° ESE 05:41:27 16° ESE 05:46:25 10° E visible
19 Sep 9.6 07:58:38 47° S 08:01:56 53° SSE 08:22:34 10° E visible
19 Sep 10.4 10:15:49 13° WSW 10:30:59 70° S 10:56:40 10° ESE visible
20 Sep 10.0 06:50:30 37° SE 06:50:30 37° SE 07:05:16 10° E visible
20 Sep 9.7 09:07:41 32° WSW 09:16:08 67° SSE 09:39:53 10° E visible
21 Sep 10.7 05:42:21 18° ESE 05:42:21 18° ESE 05:47:39 10° E visible
21 Sep 9.4 07:59:32 52° SSW 08:02:14 57° SSE 08:22:45 10° E visible
21 Sep 10.3 10:16:43 13° W 10:31:20 69° S 10:56:44 10° ESE visible
22 Sep 9.8 06:51:24 41° SE 06:51:24 41° SE 07:05:37 10° E visible
22 Sep 9.7 09:08:35 33° WSW 09:16:33 68° S 09:39:59 10° E visible
23 Sep 10.6 05:43:15 19° E 05:43:15 19° E 05:48:31 10° E visible
23 Sep 9.3 08:00:26 56° SSW 08:02:38 61° SSE 08:22:54 10° E visible
23 Sep 10.3 10:17:38 13° W 10:31:42 67° S 10:56:42 10° ESE visible
24 Sep 9.7 06:52:18 43° ESE 06:52:18 43° ESE 07:05:54 10° E visible
24 Sep 9.6 09:09:31 34° WSW 09:17:02 68° S 09:40:02 10° ESE visible
25 Sep 10.6 05:44:12 20° E 05:44:12 20° E 05:49:10 10° E visible
25 Sep 9.2 08:01:23 59° SSW 08:03:08 63° SSE 08:23:01 10° E visible
25 Sep 10.2 10:18:34 13° W 10:32:05 64° SSW 10:56:32 10° ESE visible
26 Sep 9.7 06:53:17 45° ESE 06:53:17 45° ESE 07:06:09 10° E visible
26 Sep 9.5 09:10:28 35° WSW 09:17:33 66° S 09:40:01 10° ESE visible
27 Sep 10.5 05:45:11 20° E 05:45:11 20° E 05:49:42 10° E visible
27 Sep 9.1 08:02:23 62° SSW 08:03:43 64° S 08:23:07 10° E visible
27 Sep 10.2 10:19:34 14° W 10:32:28 59° SSW 10:56:11 10° SE visible
28 Sep 9.7 06:54:19 44° ESE 06:54:19 44° ESE 07:06:24 10° E visible
28 Sep 9.5 09:11:30 36° WSW 09:18:05 64° S 09:39:54 10° ESE visible
